Tracking 29892 objects as of 21-Nov-2024
HD Live streaming from Space Station
objects crossing your sky now

TITAN 3C TRANSTAGE DEB

Track TITAN 3C TRANSTAGE DEB now!
10-day predictions


NORAD ID: 1959
Int'l Code: 1965-082GU
Perigee: 662.3 km
Apogee: 751.5 km
Inclination: 31.8 °
Period: 98.8 minutes
Semi major axis: 7077 km
RCS: 0.0229 m2 (small)
Launch date: October 15, 1965
Source: United States (US)
Launch site: AIR FORCE EASTERN TEST RANGE (AFETR)

Note: This is SATELLITE DEBRIS
Your satellite tracking list
Your tracking list is empty




NASA's NSSDC Master Catalog

Two Line Element Set (TLE):
1 01959U 65082GU  24325.81993168  .00001416  00000-0  28597-3 0  9992
2 01959  31.7882 154.8414 0062996  81.3933 279.3836 14.57965081129984
Source of the keplerian elements: AFSPC